[[{"header":{"parameterUnit":"m.s-1","parameterCategory":1,"la1":30.2991,"la2":30.254,"lo1":-89.0895,"lo2":-89.0444,"dy":0.0017,"dx":0.0017,"nx":28,"ny":28,"refTime":"2025-01-31T03:00:00:Z","depth":0,"parameterNumber":2,"parameterNumberName":"U-component_of_WINDS"},"data":[0,0,0,0,0,0,0,0,0,0,0,0,0,0,0,0,0,0,0,0,0,0,0,0,0,0,0,0,0,0,0,0,0,0,0,0,0,0,0,0,0,0,0,0,0,0,0,0,0,0,0,0,0,0,0,0,0,0,3.836,3.8361,0,3.8384,3.8384,3.8385,3.8352,3.8351,3.835,3.8349,3.8374,3.8376,3.8378,0,0,0,0,0,0,0,0,0,0,0,0,0,3.8291,3.8292,3.836,3.8361,3.8361,3.8384,3.8384,3.8385,3.8353,3.8351,3.835,3.8348,3.8374,3.8376,3.8378,0,0,0,0,0,0,0,0,0,0,0,0,0,3.8319,3.8293,3.836,3.8348,3.8347,3.8384,3.8384,3.8385,3.8353,3.8351,3.8349,3.8348,3.8373,3.8375,3.8378,3.8429,0,0,3.8386,3.8387,0,0,0,0,0,0,0,0,3.8317,3.8321,3.8349,3.8349,3.8348,3.8363,3.8369,3.84,3.8353,3.8351,3.8349,3.8347,3.8372,3.8375,3.8383,3.843,3.8431,3.8386,3.8388,3.8389,3.839,0,0,0,0,0,0,0,3.8315,3.832,3.837,3.835,3.8349,3.8342,3.8344,3.8375,3.8371,3.8351,3.8348,3.8352,3.8371,3.838,3.8383,3.8432,3.8386,3.8389,3.839,3.8391,3.8528,3.853,0,0,0,0,0,0,3.8314,3.8319,3.8369,3.837,3.8328,3.8345,3.8347,3.836,3.837,3.837,3.8353,3.835,3.8377,3.838,3.8384,3.8448,3.8389,3.8391,3.8393,3.8526,3.8529,3.8531,0,0,0,0,0,0,3.8313,3.8319,3.8368,3.8344,3.835,3.8348,3.8363,3.8362,3.8371,3.8372,3.8372,3.8363,3.8376,3.838,3.8419,3.8449,3.8393,3.8395,3.8524,3.8527,3.853,3.8575,0,0,0,0,0,0,3.8311,3.8319,3.8337,3.8345,3.8351,3.8402,3.8365,3.8363,3.8375,3.8371,3.8381,3.8381,3.8375,3.8416,3.8422,3.8451,3.8397,3.8521,3.8525,3.8529,3.8571,3.8579,3.8586,0,0,0,0,0,3.8309,3.8348,3.8338,3.8344,3.8374,3.8403,3.8407,3.8398,3.8378,3.8397,3.8399,3.8381,3.8444,3.842,3.8427,3.8457,3.8519,3.8524,3.8529,3.8567,3.8578,3.8586,0,0,0,0,0,0,3.8342,3.8348,3.8337,3.838,3.8392,3.8398,3.8421,3.8409,3.8427,3.8422,3.8411,3.8414,3.8457,3.846,3.8433,3.851,3.8479,3.8485,3.8506,3.8516,3.8523,3.8522,3.8399,0,0,0,0,0,3.8355,3.8378,3.8382,3.8419,3.8426,3.8423,3.8435,3.8428,3.844,3.8445,3.8449,3.8462,3.8485,3.85,3.8521,3.8572,3.8576,3.8596,3.8604,3.861,3.8616,3.8648,3.8659,3.8546,3.8546,3.8546,0,0,3.838,3.8387,3.8401,3.8426,3.8434,3.846,3.8427,3.8454,3.8475,3.8449,3.8487,3.8491,3.8505,3.8551,3.8571,3.8556,3.8649,3.8616,3.8621,3.8624,3.8654,3.8665,3.8674,3.8549,3.8549,3.8548,0,0,3.8441,3.8447,3.848,3.849,3.8504,3.8502,3.8511,3.852,3.8522,3.856,3.8543,3.8567,3.8606,3.8618,3.863,3.8701,3.8687,3.8708,3.8749,3.878,3.8789,3.8797,3.8826,3.8836,3.8713,3.8714,3.8714,0,3.8471,3.8509,3.8499,3.853,3.8543,3.8522,3.8558,3.8568,3.8588,3.8598,3.858,3.8632,3.864,3.8691,3.8709,3.8717,3.8729,3.8707,3.8788,3.8796,3.8803,3.8831,3.8841,3.8716,3.8716,3.8716,3.8715,0,3.8548,3.8574,3.86,3.8622,3.8637,3.867,3.8668,3.8685,3.8678,3.8679,3.8721,3.873,3.8755,3.8766,3.8758,3.8818,3.8808,3.8789,3.8758,3.8817,3.8843,3.8853,3.872,3.8719,3.8718,3.8718,0,0,3.8628,3.8647,3.8656,3.8668,3.8684,3.8705,3.8739,3.8764,3.8781,3.8796,3.8826,3.8862,3.8847,3.8859,3.8853,3.888,3.8941,3.8859,3.8859,3.8877,3.9013,3.9029,3.9041,3.8932,3.8934,3.8935,3.9013,0,3.8691,3.8749,3.8744,3.88,3.8827,3.881,3.884,3.8854,3.8858,3.8882,3.8886,3.8913,3.8888,3.8897,3.8923,3.8928,3.8969,3.8922,3.8963,3.8964,3.8962,3.9053,3.9069,3.9141,3.9022,3.9024,3.9025,0,3.8772,3.8792,3.8852,3.8868,3.8879,3.8906,3.8931,3.8954,3.8971,3.8972,3.8989,3.898,3.9017,3.8984,3.9037,3.9006,3.9023,3.9029,3.9031,3.9036,3.8999,3.9063,3.9164,3.9176,3.904,3.9039,3.9038,0,3.8829,3.8871,3.8913,3.8923,3.8942,3.8962,3.8971,3.8986,3.9004,3.9026,3.9038,3.9064,3.9079,3.9101,3.91,3.9075,3.9156,3.9121,3.916,3.916,3.9178,3.9177,3.9285,3.9185,3.9185,3.9185,3.9184,0,3.8901,3.8939,3.894,3.8966,3.9009,3.9004,3.9047,3.9054,3.9069,3.9098,3.9084,3.9112,3.9109,3.9138,3.9137,3.9184,3.919,3.9194,3.9194,3.9196,3.9197,3.9208,3.9204,3.9188,3.9187,3.9186,3.9186,0,3.8972,3.8974,3.9019,3.9034,3.9039,3.9071,3.9085,3.9111,3.9115,3.9152,3.9161,3.9167,3.9201,3.9202,3.924,3.9241,3.9299,3.9292,3.9293,3.9293,3.9332,3.933,3.9453,3.9471,3.9357,3.9358,3.9359,0,3.9019,3.9048,3.9068,3.9087,3.9097,3.9127,3.9146,3.9143,3.9163,3.9188,3.9212,3.9245,3.9271,3.9326,3.9335,3.9366,3.9361,3.9403,3.9366,3.9369,3.9366,3.9366,3.937,3.941,3.9412,3.9413,3.9413,0,3.9104,3.9104,3.9131,3.9159,3.9182,3.9204,3.9224,3.9241,3.9241,3.9265,3.93,3.932,3.9362,3.9396,3.9427,3.9438,3.9428,3.9425,3.9436,3.944,3.9441,3.9445,3.9316,3.9422,3.9421,3.9421,3.942,3.942,3.9166,3.9193,3.9213,3.9244,3.926,3.9281,3.9307,3.9316,3.9345,3.9378,3.9375,3.9415,3.9437,3.9477,3.9492,3.9525,3.9511,3.9526,3.953,3.9535,3.9541,3.9435,3.953,3.9529,3.9529,3.9529,3.9529,0,3.9253,3.9266,3.9295,3.9325,3.9351,3.9339,3.9362,3.9386,3.9421,3.9441,3.9469,3.9512,3.9546,3.9559,3.9593,3.9618,3.9614,3.9627,3.9626,3.963,3.9549,3.9538,3.963,3.963,3.963,3.963,3.963,3.963,3.9302,3.9348,3.9352,3.9408,3.942,3.9459,3.9474,3.9495,3.9512,3.9561,3.9589,3.9598,3.9617,3.9653,3.9686,3.9689,3.9704,3.972,3.9721,3.9645,3.9635,3.9626,3.9615,3.9722,3.9722,3.98,3.9801,3.9801]},{"header":{"parameterUnit":"m.s-1","parameterCategory":1,"la1":30.2991,"la2":30.254,"lo1":-89.0895,"lo2":-89.0444,"dy":0.0017,"dx":0.0017,"nx":28,"ny":28,"refTime":"2025-01-31T03:00:00:Z","depth":0,"parameterNumber":3,"parameterNumberName":"V-component_of_WINDS"},"data":[0,0,0,0,0,0,0,0,0,0,0,0,0,0,0,0,0,0,0,0,0,0,0,0,0,0,0,0,0,0,0,0,0,0,0,0,0,0,0,0,0,0,0,0,0,0,0,0,0,0,0,0,0,0,0,0,0,0,-0.1758,-0.1758,0,-0.1712,-0.1711,-0.1711,-0.1726,-0.1727,-0.1728,-0.1729,-0.1674,-0.1672,-0.1669,0,0,0,0,0,0,0,0,0,0,0,0,0,-0.1853,-0.1851,-0.1758,-0.1758,-0.1757,-0.1712,-0.1711,-0.171,-0.1726,-0.1727,-0.1728,-0.1729,-0.1675,-0.1672,-0.1669,0,0,0,0,0,0,0,0,0,0,0,0,0,-0.181,-0.1851,-0.1758,-0.1759,-0.1759,-0.1712,-0.1711,-0.171,-0.1725,-0.1727,-0.1728,-0.173,-0.1676,-0.1672,-0.1669,-0.1616,0,0,-0.1658,-0.1656,0,0,0,0,0,0,0,0,-0.1812,-0.1806,-0.176,-0.1759,-0.1759,-0.1726,-0.1725,-0.1678,-0.1725,-0.1738,-0.1729,-0.1731,-0.169,-0.1685,-0.1673,-0.1613,-0.1611,-0.1657,-0.1655,-0.1654,-0.1653,0,0,0,0,0,0,0,-0.1815,-0.1808,-0.174,-0.1759,-0.1758,-0.176,-0.1755,-0.1716,-0.1705,-0.1737,-0.1738,-0.1733,-0.169,-0.1676,-0.1672,-0.161,-0.1657,-0.1654,-0.1652,-0.1651,-0.1503,-0.1501,0,0,0,0,0,0,-0.1819,-0.1811,-0.1741,-0.1738,-0.179,-0.1757,-0.1752,-0.1735,-0.1706,-0.1703,-0.1731,-0.1734,-0.1682,-0.1676,-0.167,-0.1605,-0.1654,-0.165,-0.1648,-0.1504,-0.1502,-0.15,0,0,0,0,0,0,-0.1821,-0.1813,-0.1743,-0.1775,-0.1766,-0.1754,-0.1735,-0.1733,-0.172,-0.1702,-0.1699,-0.172,-0.1683,-0.1675,-0.1629,-0.1604,-0.1649,-0.1645,-0.1507,-0.1504,-0.1501,-0.1477,0,0,0,0,0,0,-0.1824,-0.1814,-0.1795,-0.1774,-0.1764,-0.1706,-0.1733,-0.1731,-0.1715,-0.1717,-0.1691,-0.1688,-0.1683,-0.1635,-0.1626,-0.16,-0.1642,-0.1509,-0.1505,-0.1502,-0.148,-0.1473,-0.1468,0,0,0,0,0,-0.1827,-0.1789,-0.1794,-0.1786,-0.1741,-0.1704,-0.1698,-0.1696,-0.1713,-0.1693,-0.1681,-0.1688,-0.1608,-0.163,-0.162,-0.1592,-0.151,-0.1506,-0.1502,-0.1482,-0.1475,-0.1468,0,0,0,0,0,0,-0.1805,-0.1786,-0.1792,-0.1746,-0.1727,-0.1707,-0.1682,-0.1688,-0.1662,-0.1665,-0.1661,-0.1655,-0.1608,-0.1595,-0.162,-0.1539,-0.1561,-0.1555,-0.1549,-0.1542,-0.1536,-0.154,-0.1639,0,0,0,0,0,-0.1795,-0.1769,-0.1753,-0.1713,-0.1704,-0.1694,-0.1678,-0.1678,-0.1657,-0.1648,-0.1633,-0.1611,-0.158,-0.156,-0.1531,-0.1477,-0.1471,-0.1453,-0.1447,-0.1443,-0.1438,-0.1407,-0.1399,-0.1487,-0.1487,-0.1488,0,0,-0.1774,-0.176,-0.1743,-0.1709,-0.1694,-0.1665,-0.1688,-0.1656,-0.1633,-0.1643,-0.16,-0.1587,-0.1561,-0.1512,-0.1489,-0.15,-0.1412,-0.1438,-0.1434,-0.1432,-0.1403,-0.1394,-0.1387,-0.1485,-0.1485,-0.1486,0,0,-0.172,-0.1708,-0.1674,-0.1658,-0.1636,-0.163,-0.1622,-0.1601,-0.1594,-0.1551,-0.1557,-0.1529,-0.1476,-0.1458,-0.1441,-0.1379,-0.1385,-0.1369,-0.134,-0.131,-0.1303,-0.1297,-0.1275,-0.1267,-0.1364,-0.1364,-0.1364,0,-0.1696,-0.1655,-0.1655,-0.1623,-0.1606,-0.1615,-0.158,-0.1564,-0.1532,-0.152,-0.1533,-0.1467,-0.145,-0.1396,-0.1381,-0.1367,-0.1356,-0.1373,-0.1305,-0.1298,-0.1293,-0.1271,-0.1263,-0.1362,-0.1363,-0.1363,-0.1363,0,-0.1626,-0.1596,-0.1571,-0.1543,-0.1524,-0.149,-0.1482,-0.1462,-0.1463,-0.1455,-0.141,-0.139,-0.1356,-0.1343,-0.1343,-0.1288,-0.1295,-0.1306,-0.1329,-0.1283,-0.1262,-0.1254,-0.136,-0.1361,-0.1361,-0.1361,0,0,-0.1558,-0.153,-0.1521,-0.1508,-0.1484,-0.146,-0.1425,-0.1395,-0.1377,-0.1354,-0.1324,-0.1279,-0.1289,-0.127,-0.1267,-0.1242,-0.1193,-0.1255,-0.1255,-0.1245,-0.113,-0.1123,-0.1114,-0.1196,-0.1195,-0.1193,-0.1133,0,-0.1503,-0.1445,-0.1443,-0.1389,-0.1362,-0.1369,-0.1338,-0.1318,-0.1309,-0.1282,-0.1271,-0.1239,-0.1255,-0.1243,-0.1218,-0.1205,-0.117,-0.1209,-0.1166,-0.1165,-0.1174,-0.1103,-0.1096,-0.1039,-0.1125,-0.1123,-0.1122,0,-0.1431,-0.1409,-0.1353,-0.1332,-0.132,-0.1293,-0.1265,-0.1239,-0.1216,-0.1211,-0.119,-0.119,-0.1152,-0.1175,-0.1122,-0.1148,-0.113,-0.112,-0.1118,-0.1115,-0.1142,-0.1098,-0.1021,-0.1013,-0.111,-0.1111,-0.1112,0,-0.1388,-0.1343,-0.1304,-0.1292,-0.1267,-0.1247,-0.1235,-0.1214,-0.1195,-0.1169,-0.1157,-0.1125,-0.1108,-0.1083,-0.1074,-0.1092,-0.102,-0.1043,-0.1014,-0.1014,-0.0999,-0.1,-0.0919,-0.0987,-0.0987,-0.0987,-0.0987,0,-0.1327,-0.1292,-0.1284,-0.126,-0.122,-0.1217,-0.1177,-0.1166,-0.1147,-0.1119,-0.1121,-0.1094,-0.1084,-0.1055,-0.1047,-0.1003,-0.0995,-0.0989,-0.0987,-0.0989,-0.099,-0.0978,-0.0982,-0.0985,-0.0985,-0.0985,-0.0986,0,-0.1273,-0.1266,-0.1224,-0.1203,-0.1197,-0.1169,-0.115,-0.1125,-0.1116,-0.108,-0.1072,-0.1056,-0.1022,-0.101,-0.0968,-0.0962,-0.0912,-0.0913,-0.092,-0.092,-0.0892,-0.0895,-0.08,-0.0788,-0.0863,-0.0862,-0.0861,0,-0.1235,-0.1209,-0.1186,-0.1169,-0.1156,-0.1128,-0.111,-0.1104,-0.1084,-0.1055,-0.1034,-0.1,-0.0973,-0.0916,-0.09,-0.0867,-0.0868,-0.0837,-0.0863,-0.0865,-0.0868,-0.087,-0.0867,-0.0832,-0.0832,-0.0831,-0.083,0,-0.1168,-0.1166,-0.1141,-0.1114,-0.1093,-0.1071,-0.1049,-0.1034,-0.1025,-0.1002,-0.0968,-0.0947,-0.0904,-0.087,-0.0836,-0.0821,-0.0823,-0.0822,-0.0814,-0.0816,-0.0822,-0.0818,-0.0908,-0.0825,-0.0825,-0.0826,-0.0826,-0.0826,-0.1122,-0.1099,-0.1079,-0.1051,-0.1034,-0.1014,-0.099,-0.0978,-0.0951,-0.0917,-0.0914,-0.0877,-0.0852,-0.0808,-0.079,-0.0759,-0.0768,-0.0755,-0.0752,-0.075,-0.0748,-0.0826,-0.0753,-0.0753,-0.0753,-0.0753,-0.0753,0,-0.1056,-0.1044,-0.1017,-0.0988,-0.0965,-0.0972,-0.0948,-0.0927,-0.0895,-0.0873,-0.0847,-0.0807,-0.0773,-0.0754,-0.0719,-0.0698,-0.0698,-0.0689,-0.0691,-0.0688,-0.0742,-0.0753,-0.069,-0.069,-0.069,-0.069,-0.069,-0.069,-0.1019,-0.0981,-0.0976,-0.0928,-0.0915,-0.0881,-0.0867,-0.0847,-0.083,-0.0786,-0.0759,-0.0747,-0.0725,-0.0689,-0.0658,-0.0653,-0.064,-0.063,-0.0626,-0.0677,-0.0684,-0.069,-0.0701,-0.0627,-0.0627,-0.0574,-0.0574,-0.0573]}]]